Location: Tel Aviv
(32.0670°N, 34.7670°E)
Time: 02:35:58
(UTC+02:00)

Transit 4A - Pass Details

Date: 12 December 2023
Orbit: 869 x 974 km, 66.8° (Epoch: 23 February)

Event Time Altitude Azimuth Distance (km) Brightness Sun altitude
Exits shadow 02:42:37 10° 111° (ESE) 2,528 10.6 -47.6°
Drops below altitude 10° 02:42:38 10° 111° (ESE) 2,532 10.6 -47.6°
Sets 02:45:32 0° 124° (ESE) 3,464 11.4 -47.0°
